星链-1627 (STARLINK-1627 )

导读

STARLINK-1627是美国SpaceX星链星座的卫星,于2020年8月18日发射升空,归属于星链低轨互联网星座项目,旨在为全球提供宽带互联网服务。星链系统通过大规模部署低轨卫星,逐步构建全球卫星互联网组网,这颗卫星是星链星座组网进程中早期发射的卫星之一,服务于星座的全球覆盖计划。

Basic Information
目录编号:
46168
目录名称:
STARLINK-1627
国际标识:
2020-057BD
轨道中心:
EARTH
卫星名称:
星链-1627
卫星全名:
星链-1627 (STARLINK-1627 )
卫星状态:
已陨落 最后检测时间 2026-05-24
发射日期:
2020-08-18 UTC
国别 :
美国 (US)
星等 :
--
Orbit Information
数据来源 国际轨道数据
星历时间: 2026-05-24T22:44:35+0800
轨道信息已过期25天
半长轴: 6525.397km
偏心率: 0.0006133
轨道倾角: 53.014°
近地点辐角 288.014°
升交点赤经 198.560°
平近点角 72.024°
近地点: 143.257km
远地点: 151.263km
周期: 87.432分钟
每日圈数: 16.469953
Detailed Information
固有亮度:
5
最大亮度:
2.5
卫星平台:
Starlink V1.0
覆盖范围:
全球
运营商:
太空探索技术公司
运营商所在国:
美国
制造商(研发单位):
太空探索技术公司
制造商所在国:
美国
使用方式:
暂无
Satellite Introduction
星链(Starlink)计划是由太空探索技术公司(SpaceX)提出的一个巨型低轨卫星互联网星座项目,计划在2019年至2024年间在太空搭建由约1.2万颗卫星组成的“星链”网络,其中1584颗将部署在地球上空550千米处的近地轨道,并从2020年开始工作。该卫星仍在工作。